Flag for U.S.A. Weather past 2 weeks in Temple, Texas, U.S.A.

Now
79 °F

Clear.


Feels Like: 82 °F
Forecast: 74 / 91 °F
Wind: No wind

Location: Fort Hood AAF Airport

Current Time: Sep 15, 2014 at 10:02:19 PM

Latest Report: Sep 15, 2014 at 8:56 PM


Visibility: 10 mi

Pressure: 30.10 "Hg

Humidity: 72%

Dew point: 69 °F

Location of TempleLocation

Historic Weather in Temple — Graph

°F

Temple temperature yesterday

Maximum temperature yesterday: 84 °F (at 5:56 PM)
Minimum temperature yesterday: 66 °F (at 5:56 AM)
Average temperature yesterday: 74 °F

Past Weeks' High & Low Weather Summary

 TemperatureHumidityPressure
High101 °F (Sep 10, 3:56 PM)91% (Sep 7, 5:56 AM)30.32 "Hg (Sep 7, 5:56 AM)
Low60 °F (Sep 13, 5:56 AM)15% (Sep 14, 5:56 PM)29.78 "Hg (Sep 10, 4:56 PM)
Average83 °F54%30.03 "Hg
* Reported Aug 31 8:56 PM — Sep 15 8:56 PM, Temple, Weather by CustomWeather, © 2014

Note: Actual official high and low records may vary slightly from our data, if they occured in-between our weather recording intervals... More about our weather records

Advertising

Temple weather history for previous 24 hours

 ConditionsComfort  
Time TempWeatherWind HumidityBarometerVisibility
8:56 PM
Sep 15
79 °FClear.No wind72%30.10 "Hg10 mi
7:56 PM80 °FSunny.5 mph69%30.10 "Hg10 mi
6:56 PM81 °FSunny.7 mph67%30.09 "Hg10 mi
5:56 PM82 °FBroken clouds.8 mph67%30.07 "Hg10 mi
4:56 PM87 °FPassing clouds.7 mph51%30.07 "Hg10 mi
3:56 PM88 °FScattered clouds.5 mph50%30.07 "Hg10 mi
2:56 PM88 °FSunny.No wind50%30.09 "Hg10 mi
1:56 PM87 °FPassing clouds.9 mph51%30.11 "Hg10 mi
12:56 PM88 °FSunny.6 mph50%30.13 "Hg10 mi
11:56 AM84 °FScattered clouds.7 mph57%30.15 "Hg10 mi
10:56 AM81 °FPassing clouds.3 mph60%30.16 "Hg10 mi
9:56 AM80 °FPartly sunny.No wind62%30.15 "Hg10 mi
8:56 AM75 °FPassing clouds.No wind16%30.14 "Hg10 mi
7:56 AM73 °FClear.No wind16%30.14 "Hg10 mi
6:56 AM72 °FClear.No wind17%30.13 "Hg10 mi
5:56 AM72 °FClear.No wind17%30.13 "Hg10 mi
4:56 AM75 °FClear.5 mph15%30.13 "Hg10 mi
3:56 AM72 °FClear.No wind17%30.13 "Hg10 mi
2:56 AM73 °FClear.No wind16%30.14 "Hg10 mi
1:56 AM74 °FClear.No wind17%30.14 "Hg10 mi
12:56 AM74 °FClear.No wind16%30.14 "Hg10 mi
11:56 PM
Sep 14
75 °FClear.3 mph20%30.15 "Hg10 mi
10:56 PM75 °FClear.3 mph20%30.15 "Hg10 mi
Weather by CustomWeather, © 2014

See weather overviewHow to use our weather pages